DHK026 EGNX-KMIA

Flight info

Callsign DHK026
Flight time N/A
Altitude 24000
Route TNT Q4 WAL/N0467F340 L10 PENIL M144 BAGSO DCT RINUS DCT MALOT/M082F360 DCT 54N020W 54N030W 54N040W 53N050W DCT RIKAL/N0482F380 N572A TOPPS DCT HTO DCT BEADS DCT SWL DCT SKARP/N0473F400 AR22 HOAGG BNFSH3
Aircraft B77L/H-SDE1E2E3FGHIJ2J3J4J5M1RWXY/LB1D1

Departure

Time N/A
Airport East Midlands Airport (EGNX)

Arrival

Time 2026-05-05 09:51
Airport Miami International Airport (KMIA)
Time Latitude Longitude Altitude Speed Heading
2026-05-05 09:18 27.74809 -79.25595 38025 ft 459 kts 210°
2026-05-05 09:18 27.71768 -79.26720 38028 ft 459 kts 210°
2026-05-05 09:19 27.65657 -79.28987 37609 ft 469 kts 209°
2026-05-05 09:19 27.62575 -79.30124 37337 ft 461 kts 208°
2026-05-05 09:19 27.59551 -79.31229 36958 ft 454 kts 208°
2026-05-05 09:19 27.56546 -79.32330 36410 ft 452 kts 208°
2026-05-05 09:20 27.53554 -79.33434 35789 ft 453 kts 208°
2026-05-05 09:20 27.50601 -79.34524 35214 ft 453 kts 208°
2026-05-05 09:20 27.47608 -79.35628 34680 ft 452 kts 208°
2026-05-05 09:20 27.44621 -79.36726 34193 ft 451 kts 208°
2026-05-05 09:21 27.41648 -79.37817 33686 ft 449 kts 208°
2026-05-05 09:21 27.38688 -79.38903 33228 ft 445 kts 208°
2026-05-05 09:21 27.35756 -79.39978 32815 ft 440 kts 208°
2026-05-05 09:21 27.32855 -79.41042 32408 ft 436 kts 208°
2026-05-05 09:22 27.29983 -79.42094 31981 ft 432 kts 208°
2026-05-05 09:22 27.27141 -79.43133 31482 ft 424 kts 208°
2026-05-05 09:22 27.24353 -79.44149 30657 ft 420 kts 208°
2026-05-05 09:22 27.22517 -79.44822 30060 ft 419 kts 208°
2026-05-05 09:23 27.19751 -79.45836 29103 ft 415 kts 207°
2026-05-05 09:23 27.17034 -79.46829 28335 ft 407 kts 207°
2026-05-05 09:23 27.13521 -79.48110 27420 ft 394 kts 207°
2026-05-05 09:23 27.10936 -79.49056 26716 ft 387 kts 207°
2026-05-05 09:24 27.08419 -79.49974 26251 ft 373 kts 207°
2026-05-05 09:24 27.06787 -79.50570 25965 ft 371 kts 207°
2026-05-05 09:24 27.04337 -79.51467 25602 ft 369 kts 207°
2026-05-05 09:24 27.01903 -79.52356 25229 ft 367 kts 207°
2026-05-05 09:25 26.99487 -79.53238 24867 ft 365 kts 207°
2026-05-05 09:25 26.97075 -79.54117 24482 ft 364 kts 207°
2026-05-05 09:25 26.94673 -79.54993 24098 ft 362 kts 207°
2026-05-05 09:25 26.92277 -79.55865 23718 ft 361 kts 207°
2026-05-05 09:26 26.89892 -79.56733 23290 ft 360 kts 207°
2026-05-05 09:26 26.87512 -79.57595 22892 ft 357 kts 206°
2026-05-05 09:26 26.85181 -79.58436 22513 ft 354 kts 206°
2026-05-05 09:26 26.82845 -79.59276 22135 ft 351 kts 206°
2026-05-05 09:27 26.80530 -79.60110 21751 ft 348 kts 206°
2026-05-05 09:27 26.78234 -79.60937 21362 ft 345 kts 206°
2026-05-05 09:27 26.75957 -79.61757 21008 ft 342 kts 205°
2026-05-05 09:27 26.73705 -79.62569 20652 ft 338 kts 205°
2026-05-05 09:28 26.71475 -79.63373 20295 ft 335 kts 205°
2026-05-05 09:28 26.69263 -79.64170 19943 ft 332 kts 205°
2026-05-05 09:28 26.67069 -79.64960 19588 ft 330 kts 205°
2026-05-05 09:28 26.64895 -79.65742 19235 ft 327 kts 205°
2026-05-05 09:29 26.62738 -79.66517 18876 ft 324 kts 204°
2026-05-05 09:29 26.60587 -79.67282 18862 ft 324 kts 199°
2026-05-05 09:29 26.58395 -79.68051 17791 ft 334 kts 201°
2026-05-05 09:29 26.56209 -79.68807 17621 ft 325 kts 204°
2026-05-05 09:30 26.54070 -79.69552 17314 ft 318 kts 205°
2026-05-05 09:30 26.51979 -79.70284 16989 ft 313 kts 205°
2026-05-05 09:30 26.49917 -79.71005 16643 ft 308 kts 205°
2026-05-05 09:30 26.47888 -79.71714 16302 ft 303 kts 205°
2026-05-05 09:31 26.45990 -79.72571 15981 ft 285 kts 218°
2026-05-05 09:31 26.44508 -79.73929 15834 ft 273 kts 230°
2026-05-05 09:31 26.43209 -79.75501 15685 ft 280 kts 232°
2026-05-05 09:31 26.41914 -79.77124 15922 ft 287 kts 230°
2026-05-05 09:32 26.40543 -79.78818 15300 ft 288 kts 232°
2026-05-05 09:32 26.39224 -79.80429 15127 ft 284 kts 232°
2026-05-05 09:32 26.37945 -79.82072 14969 ft 277 kts 237°
2026-05-05 09:32 26.36846 -79.83822 14804 ft 274 kts 240°
2026-05-05 09:33 26.35782 -79.85589 14644 ft 274 kts 239°
2026-05-05 09:33 26.34709 -79.87343 14476 ft 274 kts 239°
2026-05-05 09:33 26.33627 -79.89089 14321 ft 274 kts 239°
2026-05-05 09:33 26.32538 -79.90835 14147 ft 274 kts 239°
2026-05-05 09:34 26.31446 -79.92582 13996 ft 274 kts 239°
2026-05-05 09:34 26.28076 -79.97963 13421 ft 273 kts 239°
2026-05-05 09:34 26.25846 -80.01259 13058 ft 275 kts 225°
2026-05-05 09:34 26.24201 -80.02390 12914 ft 284 kts 209°
2026-05-05 09:35 26.22285 -80.03026 12730 ft 290 kts 200°
2026-05-05 09:35 26.18285 -80.03881 12372 ft 294 kts 198°
2026-05-05 09:35 26.16285 -80.04300 12188 ft 295 kts 198°
2026-05-05 09:36 26.14275 -80.04737 11994 ft 295 kts 198°
2026-05-05 09:36 26.12260 -80.05187 11811 ft 296 kts 198°
2026-05-05 09:36 26.10240 -80.05645 11626 ft 297 kts 198°
2026-05-05 09:36 26.08217 -80.06106 11445 ft 297 kts 198°
2026-05-05 09:37 26.06224 -80.06570 11265 ft 296 kts 198°
2026-05-05 09:37 26.04218 -80.07086 11082 ft 295 kts 199°
2026-05-05 09:37 26.02221 -80.07612 10892 ft 295 kts 199°
2026-05-05 09:37 26.00224 -80.08138 10729 ft 295 kts 199°
2026-05-05 09:38 25.98241 -80.08656 10554 ft 294 kts 199°
2026-05-05 09:38 25.96249 -80.09175 10367 ft 294 kts 198°
2026-05-05 09:38 25.94259 -80.09692 10195 ft 292 kts 198°
2026-05-05 09:38 25.92302 -80.10215 9993 ft 282 kts 202°
2026-05-05 09:39 25.90526 -80.11041 9808 ft 274 kts 212°
2026-05-05 09:39 25.88854 -80.12031 9649 ft 271 kts 214°
2026-05-05 09:39 25.87206 -80.13036 9492 ft 270 kts 213°
2026-05-05 09:39 25.85571 -80.14023 9327 ft 270 kts 213°
2026-05-05 09:40 25.83915 -80.15006 9165 ft 270 kts 213°
2026-05-05 09:40 25.82257 -80.15980 8988 ft 270 kts 212°
2026-05-05 09:40 25.80614 -80.16938 8822 ft 270 kts 212°
2026-05-05 09:40 25.78948 -80.17904 8653 ft 270 kts 212°
2026-05-05 09:41 25.77280 -80.18868 8493 ft 271 kts 212°
2026-05-05 09:41 25.75607 -80.19833 8320 ft 271 kts 212°
2026-05-05 09:41 25.73941 -80.20805 8155 ft 268 kts 215°
2026-05-05 09:41 25.72630 -80.22181 7942 ft 259 kts 242°
2026-05-05 09:42 25.71970 -80.24020 7705 ft 258 kts 258°
2026-05-05 09:42 25.71571 -80.25969 7444 ft 261 kts 259°
2026-05-05 09:42 25.71197 -80.27946 7170 ft 260 kts 264°
2026-05-05 09:42 25.71053 -80.29914 6893 ft 253 kts 269°
2026-05-05 09:43 25.70991 -80.31851 6635 ft 250 kts 269°
2026-05-05 09:43 25.70931 -80.33776 6382 ft 251 kts 269°
2026-05-05 09:43 25.70859 -80.35715 6117 ft 252 kts 268°
2026-05-05 09:43 25.70776 -80.37667 5837 ft 254 kts 268°
2026-05-05 09:44 25.70687 -80.39629 5574 ft 255 kts 268°
2026-05-05 09:44 25.70594 -80.41596 5302 ft 256 kts 268°
2026-05-05 09:44 25.70500 -80.43567 5059 ft 254 kts 267°
2026-05-05 09:44 25.70388 -80.45471 4921 ft 248 kts 266°
2026-05-05 09:45 25.70264 -80.47361 4791 ft 244 kts 266°
2026-05-05 09:45 25.70135 -80.49230 4684 ft 246 kts 266°
2026-05-05 09:45 25.70335 -80.51106 4287 ft 252 kts 295°
2026-05-05 09:45 25.71476 -80.52513 4077 ft 242 kts 328°
2026-05-05 09:46 25.73042 -80.53066 3871 ft 236 kts 354°
2026-05-05 09:46 25.74673 -80.52855 3681 ft 238 kts 18°
2026-05-05 09:46 25.76095 -80.51923 3473 ft 239 kts 41°
2026-05-05 09:46 25.77007 -80.50416 3269 ft 234 kts 65°
2026-05-05 09:47 25.77644 -80.48788 3072 ft 224 kts 70°
2026-05-05 09:47 25.77959 -80.47122 2789 ft 220 kts 84°
2026-05-05 09:47 25.78047 -80.45445 2496 ft 215 kts 87°
2026-05-05 09:47 25.78103 -80.43807 2259 ft 208 kts 86°
2026-05-05 09:48 25.78163 -80.42251 1976 ft 196 kts 86°
2026-05-05 09:48 25.78223 -80.40785 1734 ft 184 kts 86°
2026-05-05 09:48 25.78280 -80.39425 1495 ft 170 kts 86°
2026-05-05 09:48 25.78332 -80.38164 1229 ft 159 kts 86°
2026-05-05 09:49 25.78378 -80.36980 1032 ft 150 kts 85°
2026-05-05 09:49 25.78430 -80.35817 898 ft 152 kts 85°
2026-05-05 09:49 25.78481 -80.34635 654 ft 152 kts 86°
2026-05-05 09:49 25.78528 -80.33486 464 ft 149 kts 84°
2026-05-05 09:50 25.78578 -80.32328 280 ft 150 kts 86°
2026-05-05 09:50 25.78624 -80.31173 85 ft 149 kts 85°
2026-05-05 09:50 25.78672 -80.30070 23 ft 133 kts 85°
2026-05-05 09:50 25.78709 -80.29175 20 ft 99 kts 86°
2026-05-05 09:51 25.78739 -80.28588 19 ft 51 kts 76°
2026-05-05 09:51 25.78840 -80.28409 20 ft 0 kts 48°
2026-05-05 09:51 25.78844 -80.28403 20 ft 2 kts 48°
2026-05-05 09:51 25.78859 -80.28399 20 ft 3 kts 355°
2026-05-05 09:52 25.78874 -80.28423 20 ft 5 kts 287°
2026-05-05 09:52 25.78879 -80.28465 20 ft 6 kts 270°
2026-05-05 09:52 25.78878 -80.28519 20 ft 8 kts 269°
2026-05-05 09:52 25.78873 -80.28585 19 ft 9 kts 268°
2026-05-05 09:53 25.78871 -80.28662 19 ft 11 kts 268°
2026-05-05 09:53 25.78868 -80.28750 19 ft 12 kts 266°
2026-05-05 09:53 25.78872 -80.28843 20 ft 13 kts 297°
2026-05-05 09:53 25.78953 -80.28875 19 ft 13 kts 356°
2026-05-05 09:54 25.79047 -80.28880 19 ft 14 kts 352°
2026-05-05 09:54 25.79116 -80.28953 19 ft 15 kts 298°
2026-05-05 09:54 25.79163 -80.29055 19 ft 15 kts 292°
2026-05-05 09:54 25.79205 -80.29160 19 ft 15 kts 294°
2026-05-05 09:55 25.79247 -80.29257 19 ft 0 kts 296°
2026-05-05 09:55 25.79247 -80.29279 19 ft 5 kts 255°
2026-05-05 09:55 25.79221 -80.29309 21 ft 3 kts 222°
2026-05-05 09:55 25.79208 -80.29319 19 ft 1 kts 208°
2026-05-05 09:56 25.79203 -80.29322 19 ft 0 kts 210°